Tracking 28790 objects as of 19-Apr-2024
HD Live streaming from Space Station
objects crossing your sky now

FENGYUN 1C DEB

Track FENGYUN 1C DEB now!
10-day predictions


NORAD ID: 41832
Int'l Code: 1999-025EYK
Perigee: 796.4 km
Apogee: 886.7 km
Inclination: 98.8 °
Period: 101.6 minutes
Semi major axis: 7212 km
RCS: Unknown
Launch date: May 10, 1999
Source: People's Republic of China (PRC)
Launch site: Taiyaun Space Center, China (TSC)

Note: This is SATELLITE DEBRIS
Your satellite tracking list
Your tracking list is empty




NASA's NSSDC Master Catalog

Two Line Element Set (TLE):
1 41832U 99025EYK 24109.12028766  .00008052  00000-0  39233-2 0  9998
2 41832  98.7694 172.7362 0062614 165.1714 195.1315 14.17330559387770
Source of the keplerian elements: AFSPC